AirNav   Pilot Hours Calculator
 
 1124 users online  

L04 Holtville Airport
Holtville, California, USA

GOING TO HOLTVILLE?


FAA INFORMATION EFFECTIVE 22 APRIL 2021

Location

FAA Identifier: L04
Lat/Long: 32-50-41.8000N 115-16-06.6000W
32-50.696667N 115-16.110000W
32.8449444,-115.2685000
(estimated)
Elevation: 59 ft. / 18.0 m (surveyed)
Variation: 13E (1985)
From city: 5 miles NE of HOLTVILLE, CA
Time zone: UTC -7 (UTC -8 during Standard Time)
Zip code: 92250

Airport Operations

Airport use: CLOSED INDEFINITELY
Activation date: 02/1944
Control tower: no
ARTCC: LOS ANGELES CENTER
FSS: SAN DIEGO FLIGHT SERVICE STATION
NOTAMs facility: SAN (NOTAM-D service available)
Attendance: UNATNDD
Pattern altitude: 859 ft. MSL
Wind indicator: no
Segmented circle: no

Airport Communications

CTAF/UNICOM: 123.0
WX ASOS at IPL (16 nm W): 132.175 (760-355-2851)

Nearby radio navigation aids

VOR radial/distance  VOR name  Freq  Var
IPLr051/13.4IMPERIAL VORTAC115.9014E
BZAr264/33.9BARD VORTAC116.8014E

Airport Services

Airframe service: NONE
Powerplant service: NONE
Bottled oxygen: NONE
Bulk oxygen: NONE

Runway Information

Runway 8/26

Dimensions: 6000 x 150 ft. / 1829 x 46 m
Surface: concrete/L
1-2 FT HOLES IN PAVEMENT, BUCKLED SECTION SLABS UP TO 5 FT.
Weight bearing capacity: 
Single wheel: 30.0, LIMITED BY AMGR TO 20000 LBS; SINGLE WHEEL GEAR.
Double wheel: 50.0, LIMITED BY AMGR TO 40000 LBS; DUAL TANDEM WHEEL GEAR.
RUNWAY 8  RUNWAY 26
Latitude: 32-50.701833N32-50.692000N
Longitude: 115-16.696167W115-15.523833W
Traffic pattern: leftleft
Runway end identifier lights: no

Airport Ownership and Management from official FAA records

Ownership: Publicly-owned
Owner: COUNTY OF IMPERIAL
940 W. MAIN ST
EL CENTRO, CA 92243
Phone (442) 265-1001
Manager: SANDY CARVER
940 W. MAIN STREET, SUITE 208
EL CENTRO, CA 95543
Phone (442) 265-3220X5
ARPT MANAGERS OFFICE AT IMPERIAL CO. ARPT.

Additional Remarks

BE ALERT FREQUENT MILITARY TRAINING ACTIVITY DURING DALGT HRS AND DARK; INCLUDES TACTICAL ACFT; HELICOPTERS AND PARACHUTING; CHECK LOCAL NOTAMS CALL 619-337-7792.
FOR CD CTC LOS ANGELES ARTCC AT 661-575-2079.
(ARPT STATUS) ARPT CLSD INDEFLY.

Instrument Procedures

There are no published instrument procedures at L04.

Some nearby airports with instrument procedures:

KBWC - Brawley Municipal Airport (15 nm NW)
KIPL - Imperial County Airport (16 nm W)
KNJK - El Centro NAF Airport (Vraciu Field) (20 nm W)
KCLR - Cliff Hatfield Memorial Airport (21 nm NW)
KNYL - Yuma Marine Corps Air Station/Yuma International Airport (35 nm E)
 
Loc | Ops | Rwys | IFR | FBO | Links
Com | Nav | Svcs | Stats | Notes
Area around L04 (Holtville Airport)
 
Road maps at: MapQuest Bing Google
 
Aerial photo
No photo
 
Sectional chart

 
Airport distance calculator
Flying to Holtville Airport? Find the distance to fly.

From to L04

Sunrise and sunset
Times for 16-May-2021
 Local
(UTC-7)
 Zulu
(UTC)
Morning civil twilight05:1512:15
Sunrise05:4212:42
Sunset19:3302:33
Evening civil twilight20:0003:00

Current date and time
Zulu (UTC)  16-May-2021 22:56:36
Local (UTC-7)  16-May-2021 15:56:36
 
METAR
MMML 
13nm S 
162151Z 28010KT 10SM SKC 30/03 A2980
KIPL 
16nm W 
162153Z AUTO 27014G20KT 10SM CLR 29/07 A2978 RMK AO2 SLP084 T02890072
KNJK 
20nm W 
162156Z AUTO 25022G28KT 10SM CLR 31/10 A2981 RMK AO2 PK WND 26028/2149 SLP108 T03060100 $
TAF
MMML 
13nm S 
160331Z 1606/1706 30005KT P6SM SKC FM161800 26015KT P6SM SKC FM170300 25005KT P6SM SKC
KIPL 
16nm W 
162129Z 1621/1718 27015KT P6SM SKC FM162200 27015G25KT P6SM SKC FM170000 26024G34KT 6SM BLDU SKC FM170500 27015G22KT P6SM SKC FM171000 27010KT P6SM SKC
NOTAMs
Click for the latest NOTAMs
NOTAMs are issued by the DoD/FAA and will open in a separate window not controlled by AirNav.

 

 
 

Would you like to see your business listed on this page?

 If your business provides an interesting product or service to pilots, flight crews, aircraft, or users of the Holtville Airport, you should consider listing it here.  To start the listing process, click on the button below
 
Add a business
 

Other Pages about Holtville Airport

Update a link
 
Copyright © AirNav, LLC. All rights reserved. Privacy Policy  Contact